Regional Weather Roundup
Issued by NWS

Home | Current Version | Previous Version | Text Only | Print | Product List | Glossary On
Versions: 1 2 3 4 5 6 7 8 9 10 11 12 13 14 15 16 17 18 19 20 21 22 23 24 25 26 27 28 29 30 31 32 33 34 35 36 37 38 39 40 41 42 43 44 45 46 47 48 49 50
000
ASCA44 KEWX 270820
RWRMX

LATIN AMERICA AND CARIBBEAN REGIONAL WEATHER ROUNDUP
NATIONAL WEATHER SERVICE AUSTIN/SAN ANTONIO TX
200 AM CST TUE JAN 27 2015

NOTE: "FAIR" INDICATED FEW OR NO CLOUDS BELOW 12,000 FEET WITH NO
SIGNIFICANT WEATHER AND/OR OBSTRUCTIONS TO VISIBILITY.

BAJA CALIFORNIA

CITY           SKY/WX    TMP DP  RH WIND       PRES   REMARKS
TIJUANA        MOCLDY    55  48  76 CALM      30.11

NORTHWESTERN MEXICO

CITY           SKY/WX    TMP DP  RH WIND       PRES   REMARKS

NORTHEASTERN MEXICO

CITY           SKY/WX    TMP DP  RH WIND       PRES   REMARKS
MONTERREY      MOCLDY    54  41  62 NW5       30.23S
REYNOSA        CLEAR     54  39  58 S5        30.21F
SALTILLO       MOCLDY    48  37  66 CALM      30.33S
CD. VICTORIA   PTCLDY    55  46  71 SE5       30.23F

WESTERN MEXICO

CITY           SKY/WX    TMP DP  RH WIND       PRES   REMARKS
GUADALAJARA    MOCLDY    57  48  72 CALM      30.25R
MAZATLAN       PTCLDY    63  55  77 W8        29.96S
P. VALLARTA    PTCLDY    70  66  88 E2        29.95S
ZACATECAS      CLEAR     46  37  71 CALM      30.36

CENTRAL MEXICO

CITY           SKY/WX    TMP DP  RH WIND       PRES   REMARKS
MEXICO CITY    PTCLDY    52  34  50 NE5       30.41S
MORELIA        MOCLDY    52  41  66 CALM      30.31S
QUERETARO      MOCLDY    43  28  56 E5        30.40F WCI  40
S. LUIS POTOSI PTCLDY    45  21  39 NW5       30.36  WCI  42
TOLUCA         PTCLDY    41  36  81 CALM      30.46F

SOUTHERN MEXICO

CITY           SKY/WX    TMP DP  RH WIND       PRES   REMARKS
ACAPULCO       PTCLDY    77  75  94 E2        29.95F

YUCATAN PENINSULA

CITY           SKY/WX    TMP DP  RH WIND       PRES   REMARKS
CANCUN         CLEAR     55  55 100 W2        30.11F
COZUMEL        CLEAR     64  59  82 NW14      30.12F
MERIDA         PTCLDY    57  54  88 CALM      30.15F
TAPACHULA      CLEAR     75  70  83 E8        29.94F

CENTRAL AMERICA

CITY           SKY/WX    TMP DP  RH WIND       PRES   REMARKS

CARIBBEAN

CITY           SKY/WX    TMP DP  RH WIND       PRES   REMARKS
ARUBA          PTCLDY    79  73  83 E14       29.83F
CURACAO        PTCLDY    79  73  83 SE8       29.86F
KINGSTON       PTCLDY    79  72  78 NW5       29.92F
NASSAU         PTCLDY    68  52  56 NW20      29.95R
SAN JUAN       PTCLDY    75  72  88 CALM      29.95F
SANTO DOMINGO  PTCLDY    70  68  94 N3        29.94S

$$




USA.gov is the U.S. government's official web portal to all federal, state and local government web resources and services.